Clinton, AR

12:22 PM CDT on September 16, 2019 (GMT -0500)
Clinton

Weather History for KCCA - August, 2019

Change the Weather History Date:

Sunday, August 25, 2019

  Actual Average (WUND) Record (WUND)
Temperature  
Mean Temperature 76 °F -  
Max Temperature 82 °F - - (-1)
Min Temperature 71 °F - - (-1)
Cooling Degree Days 12    
Growing Degree Days 26 (Base 50)    
Moisture  
Dew Point 73 °F    
Average Humidity 93    
Maximum Humidity 100    
Minimum Humidity 79    
Precipitation  
Precipitation 0.00 in - - ()
Sea Level Pressure  
Sea Level Pressure 29.91 in    
Wind  
Wind Speed 0 mph ()    
Max Wind Speed 8 mph    
Max Gust Speed -    
Visibility 8.9 miles    
Events Rain , Thunderstorm    
Averages and records for this station are not official NWS values.
T = Trace of Precipitation, MM = Missing Value Source: Averaged Metar Reports

Daily Weather History Graph

Daily Weather History Graph

Search for Another Location

Airport or City:

Astronomy

Aug. 25, 2019 Rise Set
Actual Time 6:36 AM CDT 7:46 PM CDT
Civil Twilight 6:10 AM CDT 8:13 PM CDT
Nautical Twilight 5:38 AM CDT 8:44 PM CDT
Astronomical Twilight 5:05 AM CDT 9:17 PM CDT
Moon 1:17 AM CDT (8/25) 4:01 PM CDT (8/25)
Length of Visible Light 14h 03m
Length of Day
13h 10m
Waning Crescent, 29% of the Moon is Illuminated
Aug 25
Waning Crescent
Aug 30
New
Sep 5
First Quarter
Sep 13
Full
Sep 21
Last Quarter

Hourly Weather History & Observations

Time (CDT) Temp. Heat Index Dew Point Humidity Pressure Visibility Wind Dir Wind Speed Gust Speed Precip Events Conditions
12:35 AM 73.4 °F - 71.6 °F 94% 30.01 in 9.0 mi Calm Calm - N/A   Light Drizzle
12:55 AM 71.6 °F - 71.6 °F 100% 30.01 in 6.0 mi Calm Calm - N/A   Light Drizzle
1:15 AM 71.6 °F - 71.6 °F 100% 30.00 in 1.2 mi Calm Calm - N/A Rain Heavy Rain
1:35 AM 71.6 °F - 71.6 °F 100% 30.00 in 1.5 mi Calm Calm - N/A Rain Heavy Rain
1:55 AM 71.6 °F - 71.6 °F 100% 29.99 in 9.0 mi Calm Calm - N/A   Overcast
2:15 AM 71.6 °F - 71.6 °F 100% 29.99 in 5.0 mi Calm Calm - N/A   Overcast
2:55 AM 71.6 °F - 71.6 °F 100% 29.97 in 3.0 mi Calm Calm - N/A Rain Light Rain
3:15 AM 71.6 °F - 71.6 °F 100% 29.97 in 6.0 mi Calm Calm - N/A   Light Drizzle
3:35 AM 71.6 °F - 71.6 °F 100% 29.97 in 5.0 mi Calm Calm - N/A   Light Drizzle
3:55 AM 71.6 °F - 71.6 °F 100% 29.97 in 7.0 mi Calm Calm - N/A   Light Drizzle
4:35 AM 71.6 °F - 71.6 °F 100% 29.96 in 9.0 mi Calm Calm - N/A   Overcast
4:55 AM 71.6 °F - 71.6 °F 100% 29.95 in 9.0 mi Calm Calm - N/A   Overcast
5:15 AM 71.6 °F - 71.6 °F 100% 29.95 in 10.0 mi Calm Calm - N/A   Overcast
5:35 AM 71.6 °F - 71.6 °F 100% 29.95 in 10.0 mi Calm Calm - N/A   Overcast
5:55 AM 71.6 °F - 71.6 °F 100% 29.94 in 10.0 mi Calm Calm - N/A   Overcast
6:35 AM 71.6 °F - 71.6 °F 100% 29.95 in 10.0 mi Calm Calm - N/A   Overcast
6:55 AM 71.6 °F - 71.6 °F 100% 29.96 in 10.0 mi Calm Calm - N/A   Overcast
7:15 AM 71.6 °F - 71.6 °F 100% 29.96 in 9.0 mi Calm Calm - N/A   Overcast
7:35 AM 71.6 °F - 71.6 °F 100% 29.96 in 10.0 mi Calm Calm - N/A   Overcast
7:55 AM 73.4 °F - 71.6 °F 94% 29.96 in 10.0 mi Calm Calm - N/A   Overcast
8:15 AM 73.4 °F - 71.6 °F 94% 29.95 in 10.0 mi Calm Calm - N/A   Overcast
8:35 AM 73.4 °F - 71.6 °F 94% 29.96 in 10.0 mi Calm Calm - N/A   Overcast
8:55 AM 73.4 °F - 71.6 °F 94% 29.95 in 10.0 mi Calm Calm - N/A   Overcast
9:15 AM 73.4 °F - 73.4 °F 100% 29.96 in 10.0 mi Calm Calm - N/A   Overcast
9:35 AM 75.2 °F - 73.4 °F 94% 29.96 in 10.0 mi Calm Calm - N/A   Overcast
9:55 AM 75.2 °F - 73.4 °F 94% 29.98 in 10.0 mi Calm Calm - N/A   Overcast
10:15 AM 75.2 °F - 73.4 °F 94% 29.97 in 10.0 mi ESE 3.5 mph - N/A   Overcast
10:35 AM 75.2 °F - 73.4 °F 94% 29.97 in 10.0 mi ESE 3.5 mph - N/A   Overcast
10:55 AM 77.0 °F - 73.4 °F 89% 29.97 in 10.0 mi South 4.6 mph - N/A   Overcast
11:15 AM 75.2 °F - 73.4 °F 94% 29.96 in 10.0 mi Variable 3.5 mph - N/A   Overcast
11:35 AM 75.2 °F - 73.4 °F 94% 29.96 in 9.0 mi Calm Calm - N/A   Overcast
11:55 AM 75.2 °F - 73.4 °F 94% 29.96 in 3.0 mi Calm Calm - N/A Rain Light Rain
12:35 PM 78.8 °F - 75.2 °F 89% 29.93 in 10.0 mi Calm Calm - N/A   Mostly Cloudy
12:55 PM 80.6 °F 85.4 °F 73.4 °F 79% 29.92 in 10.0 mi Calm Calm - N/A   Overcast
1:15 PM 80.6 °F 86.2 °F 75.2 °F 84% 29.91 in 9.0 mi Calm Calm - N/A   Mostly Cloudy
1:35 PM 82.4 °F 89.5 °F 75.2 °F 79% 29.91 in 10.0 mi Calm Calm - N/A   Overcast
1:55 PM 82.4 °F 89.5 °F 75.2 °F 79% 29.90 in 10.0 mi Calm Calm - N/A   Mostly Cloudy
2:15 PM 82.4 °F 89.5 °F 75.2 °F 79% 29.88 in 9.0 mi West 8.1 mph - N/A   Light Drizzle
2:35 PM 78.8 °F - 75.2 °F 89% 29.88 in 10.0 mi West 4.6 mph - N/A   Mostly Cloudy
2:55 PM 80.6 °F 87.1 °F 77.0 °F 89% 29.86 in 10.0 mi Calm Calm - N/A Thunderstorm Scattered Clouds
3:15 PM 80.6 °F 87.1 °F 77.0 °F 89% 29.85 in 9.0 mi Calm Calm - N/A Thunderstorm Thunderstorm
3:35 PM 82.4 °F 90.9 °F 77.0 °F 84% 29.85 in 10.0 mi Calm Calm - N/A Thunderstorm Scattered Clouds
3:55 PM 80.6 °F 86.2 °F 75.2 °F 84% 29.84 in 10.0 mi Calm Calm - N/A Thunderstorm Mostly Cloudy
4:15 PM 80.6 °F 87.1 °F 77.0 °F 89% 29.84 in 10.0 mi Calm Calm - N/A   Mostly Cloudy
4:35 PM 80.6 °F 87.1 °F 77.0 °F 89% 29.83 in 10.0 mi East 4.6 mph - N/A   Scattered Clouds
4:55 PM 80.6 °F 86.2 °F 75.2 °F 84% 29.83 in 7.0 mi Calm Calm - N/A   Scattered Clouds
5:15 PM 78.8 °F - 75.2 °F 89% 29.84 in 10.0 mi Calm Calm - N/A   Overcast
5:35 PM 78.8 °F - 75.2 °F 89% 29.82 in 10.0 mi ENE 3.5 mph - N/A   Overcast
5:55 PM 78.8 °F - 75.2 °F 89% 29.83 in 10.0 mi Calm Calm - N/A   Scattered Clouds
6:15 PM 78.8 °F - 75.2 °F 89% 29.82 in 10.0 mi Calm Calm - N/A   Scattered Clouds
6:35 PM 78.8 °F - 75.2 °F 89% 29.82 in 10.0 mi Calm Calm - N/A   Scattered Clouds
6:55 PM 78.8 °F - 75.2 °F 89% 29.82 in 10.0 mi Calm Calm - N/A   Clear
7:15 PM 78.8 °F - 73.4 °F 83% 29.83 in 10.0 mi SE 3.5 mph - N/A   Scattered Clouds
7:35 PM 78.8 °F - 73.4 °F 83% 29.83 in 10.0 mi Calm Calm - N/A   Overcast
7:55 PM 77.0 °F - 73.4 °F 89% 29.84 in 10.0 mi Calm Calm - N/A   Overcast
8:55 PM 77.0 °F - 75.2 °F 94% 29.86 in 10.0 mi Variable 3.5 mph - N/A   Overcast
9:15 PM 75.2 °F - 73.4 °F 94% 29.87 in 4.0 mi Calm Calm - N/A Rain Light Rain
9:35 PM 75.2 °F - 75.2 °F 100% 29.87 in 9.0 mi Calm Calm - N/A   Mostly Cloudy
10:15 PM 75.2 °F - 73.4 °F 94% 29.87 in 10.0 mi Calm Calm - N/A   Mostly Cloudy
10:35 PM 75.2 °F - 73.4 °F 94% 29.87 in 10.0 mi Calm Calm - N/A   Scattered Clouds
10:55 PM 73.4 °F - 73.4 °F 100% 29.87 in 10.0 mi Calm Calm - N/A Thunderstorm Mostly Cloudy
11:15 PM 73.4 °F - 73.4 °F 100% 29.86 in 10.0 mi Calm Calm - N/A   Overcast
11:35 PM 73.4 °F - 73.4 °F 100% 29.86 in 10.0 mi Calm Calm - N/A   Overcast
11:55 PM 75.2 °F - 73.4 °F 94% 29.86 in 10.0 mi Calm Calm - N/A Thunderstorm Overcast